Location: Penton Mewsey
(51.2167°N, 1.5167°W)
Time: 11:51:43
(UTC+00:00)

Ariane Rocket - Pass Details

Date: 30 March 2020
Orbit: 761 x 769 km, 98.7° (Epoch: 25 May)

Event Time Altitude Azimuth Distance (km) Brightness Sun altitude
Rises 19:38:17 0° 174° (S) 3,224 6.0 -10.2°
Reaches altitude 10° 19:40:37 10° 178° (S) 2,300 5.3 -10.5°
Maximum altitude 19:45:37 60° 258° (WSW) 876 3.6 -11.3°
Drops below altitude 10° 19:50:39 10° 339° (NNW) 2,312 6.1 -12.0°
Sets 19:53:00 0° 343° (NNW) 3,241 6.9 -12.3°
